Regional Weather Roundup
Issued by NWS

Home | Current Version | Previous Version | Text Only | Print | Product List | Glossary Off
Versions: 1 2 3 4 5 6 7 8 9 10 11 12 13 14 15 16 17 18 19 20 21 22 23 24 25 26 27 28 29 30 31 32 33 34 35 36 37 38 39 40 41 42 43 44 45 46 47 48 49 50

000
ASUS44 KMEG 210900
RWRTN
TENNESSEE HOURLY STATE WEATHER ROUNDUP
NATIONAL WEATHER SERVICE MEMPHIS TN
400 AM CDT TUE OCT 21 2014

TNZ002-004-019-021-049-052-054-088>092-211000-
WEST TENNESSEE

CITY           SKY/WX    TMP DP  RH WIND       PRES   REMARKS
MEMPHIS INTL   CLEAR     56  52  86 CALM      30.02F
NWS MEMPHIS      N/A     53 N/A N/A MISG        N/A
JACKSON        CLEAR     50  48  93 CALM      30.02S
DYERSBURG      CLEAR     54  43  66 CALM      30.04S
UNION CITY     CLEAR     52  52 100 CALM      30.02R
PARIS          CLEAR     46  46 100 NE3       30.02S
LEXINGTON      CLEAR     46  46 100 CALM      30.01S
SAVANNAH       CLEAR     46  46 100 CALM      30.02S
$$

TNZ008-025-027-028-033-062-065-066-211000-
NORTH MIDDLE TENNESSEE

CITY           SKY/WX    TMP DP  RH WIND       PRES   REMARKS
NASHVILLE      CLEAR     50  48  93 CALM      30.00F
CLARKSVILLE    CLEAR     50  50 100 W3        30.01S FOG
COOKEVILLE       N/A     43  43 100 CALM      29.99S VSB 1/2
CROSSVILLE     CLEAR     50  46  86 SW5       30.01S
$$

TNZ061-075-076-078-094-096-097-211000-
SOUTH MIDDLE TENNESSEE

CITY           SKY/WX    TMP DP  RH WIND       PRES   REMARKS
MCMINNVILLE    CLEAR     48  48 100 CALM      30.01S
SHELBYVILLE    CLEAR     46  46 100 E3        30.02S
$$

TNZ017-018-042-046-047-211000-
NORTHEAST TENNESSEE

CITY           SKY/WX    TMP DP  RH WIND       PRES   REMARKS
TRI CITIES     LGT RAIN  48  47  96 CALM      29.98S
ELIZABETHTON   CLOUDY    54  48  82 CALM      29.98S
$$

TNZ012-013-036-069-073-074-211000-
CENTRAL EAST TENNESSEE

CITY           SKY/WX    TMP DP  RH WIND       PRES   REMARKS
KNOXVILLE      PTCLDY    52  49  89 SW8       29.98F
OAK RIDGE      PTCLDY    52  48  86 SW3       30.00S
GATLINBURG     PTSUNNY   48  46  93 CALM      29.98F
MORRISTOWN     CLOUDY    52  50  93 CALM      29.99S
$$

TNZ083-085-099-211000-
SOUTHEAST TENNESSEE

CITY           SKY/WX    TMP DP  RH WIND       PRES   REMARKS
CHATTANOOGA    CLEAR     50  48  93 CALM      30.01S
$$

SKY/WX REPORTED AS FAIR MEANS FEW OR NO CLOUDS BELOW
12 THOUSAND FEET.



USA.gov is the U.S. government's official web portal to all federal, state and local government web resources and services.